| time (UTC) | temp F | wind direction | speed MPH | gust MPH | rain 1hr in | rain 24hr in | rain mn in | humidity % | barometer mb |
| 20260504010032 | 43 | 265 | 0.0 | 1.0 | 0.00 | 0.00 | 0.00 | 66 | 1009.3 |
| 20260504005531 | 44 | 265 | 0.0 | 2.0 | 0.00 | 0.00 | 0.00 | 65 | 1009.3 |
| 20260504005031 | 44 | 265 | 0.0 | 2.0 | 0.00 | 0.00 | 0.00 | 64 | 1009.3 |
| 20260504004536 | 45 | 265 | 0.0 | 1.0 | 0.00 | 0.00 | 0.00 | 61 | 1009.3 |
| 20260504004031 | 45 | 265 | 0.0 | 1.0 | 0.00 | 0.00 | 0.00 | 58 | 1009.2 |
| 20260504003530 | 46 | 265 | 0.0 | 2.0 | 0.00 | 0.00 | 0.00 | 56 | 1009.1 |
| 20260504003031 | 46 | 265 | 0.0 | 2.0 | 0.00 | 0.00 | 0.00 | 55 | 1009.0 |
| 20260504002531 | 47 | 265 | 0.0 | 3.0 | 0.00 | 0.00 | 0.00 | 54 | 1009.0 |
| 20260504002030 | 47 | 265 | 1.0 | 3.0 | 0.00 | 0.00 | 0.00 | 53 | 1008.9 |
| 20260504001536 | 47 | 268 | 1.0 | 4.0 | 0.00 | 0.00 | 0.00 | 52 | 1008.9 |
| 20260504001030 | 47 | 268 | 1.0 | 4.0 | 0.00 | 0.00 | 0.00 | 51 | 1008.9 |
| 20260504000532 | 48 | 258 | 2.0 | 8.0 | 0.00 | 0.00 | 0.00 | 51 | 1008.8 |
| 20260504000030 | 48 | 301 | 2.0 | 12.0 | 0.00 | 0.00 | 0.00 | 50 | 1008.8 |
| 20260503235531 | 48 | 266 | 4.0 | 12.0 | 0.00 | 0.00 | 0.00 | 49 | 1008.6 |
| 20260503235031 | 48 | 252 | 5.0 | 10.0 | 0.00 | 0.00 | 0.00 | 49 | 1008.6 |
| 20260503234530 | 48 | 258 | 3.0 | 11.0 | 0.00 | 0.00 | 0.00 | 49 | 1008.6 |
| 20260503234031 | 49 | 260 | 5.0 | 11.0 | 0.00 | 0.00 | 0.00 | 48 | 1008.5 |
| 20260503233529 | 49 | 222 | 5.0 | 10.0 | 0.00 | 0.00 | 0.00 | 47 | 1008.4 |
| 20260503233033 | 49 | 302 | 4.0 | 10.0 | 0.00 | 0.00 | 0.00 | 47 | 1008.3 |
| 20260503232529 | 49 | 314 | 2.0 | 15.0 | 0.00 | 0.00 | 0.00 | 48 | 1008.3 |
| 20260503232030 | 49 | 257 | 4.0 | 15.0 | 0.00 | 0.00 | 0.00 | 46 | 1008.3 |
| 20260503231529 | 50 | 298 | 8.0 | 15.0 | 0.00 | 0.00 | 0.00 | 46 | 1008.2 |
| 20260503231029 | 50 | 297 | 5.0 | 14.0 | 0.00 | 0.00 | 0.00 | 46 | 1008.2 |
| 20260503230530 | 50 | 256 | 7.0 | 14.0 | 0.00 | 0.00 | 0.00 | 46 | 1008.0 |
| 20260503230028 | 50 | 242 | 5.0 | 19.0 | 0.00 | 0.00 | 0.00 | 46 | 1008.1 |
| 20260503225528 | 50 | 264 | 8.0 | 19.0 | 0.00 | 0.01 | 0.00 | 45 | 1007.9 |
| 20260503225030 | 51 | 237 | 6.0 | 15.0 | 0.00 | 0.01 | 0.00 | 44 | 1007.8 |
| 20260503224528 | 51 | 252 | 6.0 | 17.0 | 0.00 | 0.01 | 0.00 | 44 | 1007.7 |
| 20260503224031 | 51 | 289 | 7.0 | 17.0 | 0.00 | 0.01 | 0.00 | 45 | 1007.7 |
| 20260503223527 | 51 | 309 | 3.0 | 12.0 | 0.00 | 0.01 | 0.00 | 45 | 1007.6 |
| 20260503223028 | 52 | 283 | 5.0 | 15.0 | 0.00 | 0.01 | 0.00 | 45 | 1007.6 |
| 20260503222526 | 51 | 268 | 8.0 | 15.0 | 0.00 | 0.01 | 0.00 | 45 | 1007.6 |
| 20260503222026 | 51 | 255 | 3.0 | 15.0 | 0.00 | 0.01 | 0.00 | 45 | 1007.6 |
| 20260503221526 | 51 | 240 | 6.0 | 15.0 | 0.00 | 0.01 | 0.00 | 45 | 1007.5 |
| 20260503221027 | 51 | 359 | 5.0 | 17.0 | 0.00 | 0.01 | 0.00 | 45 | 1007.4 |
| 20260503220527 | 51 | 264 | 3.0 | 15.0 | 0.00 | 0.01 | 0.00 | 45 | 1007.3 |
| 20260503220035 | 51 | 235 | 3.0 | 14.0 | 0.00 | 0.01 | 0.00 | 44 | 1007.2 |
| 20260503215527 | 51 | 326 | 4.0 | 15.0 | 0.00 | 0.05 | 0.00 | 46 | 1007.1 |
| 20260503215026 | 51 | 276 | 7.0 | 15.0 | 0.00 | 0.05 | 0.00 | 45 | 1007.1 |
| 20260503214526 | 51 | 295 | 4.0 | 16.0 | 0.00 | 0.05 | 0.00 | 45 | 1007.1 |
| 20260503214030 | 51 | 314 | 5.0 | 21.0 | 0.00 | 0.05 | 0.00 | 45 | 1007.1 |
| 20260503213526 | 51 | 314 | 9.0 | 21.0 | 0.00 | 0.05 | 0.00 | 44 | 1007.0 |
| 20260503213025 | 51 | 295 | 6.0 | 20.0 | 0.00 | 0.05 | 0.00 | 44 | 1006.9 |
| 20260503212524 | 52 | 295 | 7.0 | 16.0 | 0.00 | 0.05 | 0.00 | 43 | 1006.9 |
| 20260503212023 | 52 | 260 | 5.0 | 17.0 | 0.00 | 0.05 | 0.00 | 43 | 1006.9 |
| 20260503211522 | 52 | 252 | 8.0 | 22.0 | 0.00 | 0.05 | 0.00 | 42 | 1007.0 |
| 20260503211020 | 53 | 303 | 12.0 | 22.0 | 0.00 | 0.05 | 0.00 | 41 | 1006.8 |
| 20260503210525 | 54 | 307 | 2.0 | 14.0 | 0.00 | 0.05 | 0.00 | 44 | 1006.6 |
| 20260503210020 | 52 | 359 | 8.0 | 15.0 | 0.00 | 0.05 | 0.00 | 44 | 1006.6 |
| 20260503205520 | 52 | 224 | 9.0 | 17.0 | 0.00 | 0.05 | 0.00 | 44 | 1006.6 |
| 20260503205019 | 52 | 259 | 8.0 | 17.0 | 0.00 | 0.05 | 0.00 | 44 | 1006.5 |
| 20260503204519 | 52 | 265 | 5.0 | 18.0 | 0.00 | 0.05 | 0.00 | 43 | 1006.5 |
| 20260503204018 | 52 | 332 | 5.0 | 18.0 | 0.00 | 0.05 | 0.00 | 44 | 1006.5 |
| 20260503203518 | 52 | 291 | 5.0 | 17.0 | 0.00 | 0.05 | 0.00 | 46 | 1006.4 |
| 20260503203040 | 52 | 310 | 7.0 | 17.0 | 0.00 | 0.05 | 0.00 | 45 | 1006.4 |
| 20260503202518 | 52 | 310 | 6.0 | 14.0 | 0.00 | 0.05 | 0.00 | 45 | 1006.3 |
| 20260503202018 | 53 | 272 | 4.0 | 13.0 | 0.00 | 0.05 | 0.00 | 47 | 1006.4 |
| 20260503201517 | 53 | 265 | 7.0 | 17.0 | 0.00 | 0.05 | 0.00 | 46 | 1006.2 |
| 20260503201017 | 52 | 297 | 7.0 | 17.0 | 0.00 | 0.05 | 0.00 | 46 | 1006.2 |
| 20260503200517 | 52 | 280 | 4.0 | 17.0 | 0.00 | 0.05 | 0.00 | 47 | 1006.1 |
| 20260503200017 | 52 | 316 | 7.0 | 17.0 | 0.00 | 0.05 | 0.00 | 47 | 1006.2 |
| 20260503195517 | 52 | 311 | 7.0 | 17.0 | 0.00 | 0.05 | 0.00 | 48 | 1006.3 |
| 20260503195016 | 52 | 307 | 4.0 | 20.0 | 0.00 | 0.05 | 0.00 | 47 | 1006.2 |
| 20260503194532 | 53 | 289 | 10.0 | 20.0 | 0.00 | 0.05 | 0.00 | 48 | 1006.2 |
| 20260503194016 | 53 | 263 | 5.0 | 18.0 | 0.00 | 0.05 | 0.00 | 48 | 1006.2 |
| 20260503193516 | 53 | 282 | 7.0 | 18.0 | 0.00 | 0.05 | 0.00 | 48 | 1006.3 |
| 20260503193016 | 53 | 295 | 7.0 | 17.0 | 0.00 | 0.05 | 0.00 | 48 | 1006.4 |
| 20260503192515 | 53 | 296 | 6.0 | 16.0 | 0.00 | 0.05 | 0.00 | 50 | 1006.4 |
| 20260503192015 | 53 | 323 | 6.0 | 16.0 | 0.00 | 0.05 | 0.00 | 49 | 1006.3 |
| 20260503191515 | 53 | 287 | 6.0 | 17.0 | 0.00 | 0.05 | 0.00 | 47 | 1006.3 |
| 20260503191015 | 54 | 278 | 8.0 | 18.0 | 0.00 | 0.05 | 0.00 | 48 | 1006.4 |
| 20260503190513 | 53 | 303 | 6.0 | 17.0 | 0.00 | 0.05 | 0.00 | 50 | 1006.3 |
| 20260503190013 | 53 | 160 | 4.0 | 16.0 | 0.00 | 0.05 | 0.00 | 49 | 1006.3 |
| 20260503185518 | 53 | 309 | 7.0 | 14.0 | 0.00 | 0.05 | 0.00 | 49 | 1006.3 |
| 20260503185016 | 53 | 242 | 4.0 | 14.0 | 0.00 | 0.05 | 0.00 | 49 | 1006.3 |
| 20260503184522 | 53 | 301 | 3.0 | 15.0 | 0.00 | 0.05 | 0.00 | 48 | 1006.4 |
| 20260503184012 | 53 | 305 | 6.0 | 17.0 | 0.00 | 0.05 | 0.00 | 48 | 1006.5 |
| 20260503183511 | 53 | 293 | 6.0 | 17.0 | 0.00 | 0.05 | 0.00 | 49 | 1006.4 |
| 20260503183010 | 52 | 41 | 8.0 | 16.0 | 0.00 | 0.05 | 0.00 | 49 | 1006.6 |
| 20260503182509 | 51 | 165 | 5.0 | 17.0 | 0.00 | 0.05 | 0.00 | 52 | 1006.6 |
| 20260503182008 | 51 | 335 | 7.0 | 18.0 | 0.00 | 0.05 | 0.00 | 51 | 1006.6 |
| 20260503181508 | 51 | 287 | 7.0 | 19.0 | 0.00 | 0.05 | 0.00 | 52 | 1006.6 |
| 20260503181008 | 51 | 308 | 7.0 | 19.0 | 0.00 | 0.05 | 0.00 | 53 | 1006.6 |
| 20260503180509 | 51 | 246 | 3.0 | 18.0 | 0.00 | 0.05 | 0.00 | 56 | 1006.6 |
| 20260503180009 | 50 | 332 | 8.0 | 20.0 | 0.00 | 0.05 | 0.00 | 56 | 1006.7 |
| 20260503175508 | 50 | 354 | 8.0 | 20.0 | 0.00 | 0.05 | 0.00 | 56 | 1006.6 |
| 20260503175007 | 50 | 103 | 8.0 | 21.0 | 0.00 | 0.05 | 0.00 | 55 | 1006.5 |
| 20260503174507 | 51 | 237 | 9.0 | 18.0 | 0.00 | 0.05 | 0.00 | 55 | 1006.4 |
| 20260503174007 | 52 | 311 | 8.0 | 16.0 | 0.00 | 0.05 | 0.00 | 57 | 1006.3 |
| 20260503173505 | 51 | 323 | 4.0 | 15.0 | 0.00 | 0.05 | 0.00 | 57 | 1006.3 |
| 20260503173006 | 50 | 268 | 8.0 | 20.0 | 0.00 | 0.05 | 0.00 | 56 | 1006.4 |
| 20260503172504 | 51 | 307 | 10.0 | 20.0 | 0.00 | 0.05 | 0.00 | 57 | 1006.3 |
| 20260503172008 | 51 | 56 | 5.0 | 17.0 | 0.00 | 0.05 | 0.00 | 59 | 1006.3 |
| 20260503171504 | 51 | 289 | 6.0 | 20.0 | 0.00 | 0.05 | 0.00 | 58 | 1006.3 |
| 20260503171004 | 51 | 354 | 6.0 | 20.0 | 0.00 | 0.05 | 0.00 | 58 | 1006.3 |
| 20260503170503 | 51 | 294 | 5.0 | 17.0 | 0.00 | 0.05 | 0.00 | 59 | 1006.2 |
| 20260503150547 | 45 | 279 | 8.0 | 18.0 | 0.00 | 0.05 | 0.00 | 81 | 1006.5 |
| 20260503131038 | 46 | 291 | 3.0 | 12.0 | 0.00 | 0.08 | 0.00 | 82 | 1007.0 |
| 20260503130539 | 46 | 339 | 4.0 | 11.0 | 0.00 | 0.08 | 0.00 | 82 | 1007.0 |
| 20260503110523 | 41 | 292 | 0.0 | 9.0 | 0.00 | 0.18 | 0.00 | 89 | 1007.3 |
| 20260503090504 | 41 | 291 | 1.0 | 8.0 | 0.00 | 0.19 | 0.00 | 90 | 1007.6 |
| 20260503081559 | 41 | 300 | 1.0 | 7.0 | 0.00 | 0.19 | 0.00 | 91 | 1008.5 |
| 20260503081055 | 41 | 301 | 3.0 | 7.0 | 0.00 | 0.19 | 0.00 | 91 | 1008.5 |
| 20260503080554 | 41 | 266 | 1.0 | 6.0 | 0.00 | 0.19 | 0.00 | 91 | 1008.4 |
| 20260503072552 | 42 | 261 | 1.0 | 7.0 | 0.00 | 0.19 | 0.00 | 91 | 1008.8 |
| 20260503072052 | 42 | 267 | 1.0 | 7.0 | 0.00 | 0.19 | 0.00 | 91 | 1008.8 |
| 20260503071549 | 42 | 281 | 1.0 | 7.0 | 0.00 | 0.19 | 0.00 | 91 | 1008.7 |
| 20260503071048 | 42 | 267 | 1.0 | 4.0 | 0.00 | 0.19 | 0.00 | 91 | 1008.9 |
| 20260503070550 | 42 | 266 | 1.0 | 4.0 | 0.00 | 0.19 | 0.00 | 91 | 1009.0 |
| 20260503060108 | 42 | 283 | 1.0 | 4.0 | 0.00 | 0.19 | 0.00 | 91 | 1009.8 |
| 20260503055038 | 43 | 285 | 0.0 | 4.0 | 0.00 | 0.19 | 0.00 | 91 | 1009.6 |
| 20260503054554 | 43 | 281 | 1.0 | 6.0 | 0.00 | 0.19 | 0.00 | 91 | 1009.8 |
| 20260503054039 | 43 | 298 | 1.0 | 5.0 | 0.00 | 0.19 | 0.00 | 91 | 1009.8 |
| 20260503053536 | 43 | 283 | 2.0 | 5.0 | 0.00 | 0.19 | 0.00 | 91 | 1009.9 |
| 20260503053040 | 43 | 321 | 0.0 | 3.0 | 0.00 | 0.19 | 0.00 | 91 | 1010.0 |
| 20260503052534 | 44 | 322 | 0.0 | 2.0 | 0.00 | 0.19 | 0.00 | 91 | 1009.9 |
| 20260503052032 | 44 | 322 | 0.0 | 3.0 | 0.00 | 0.19 | 0.00 | 91 | 1010.0 |
| 20260503051532 | 44 | 359 | 0.0 | 3.0 | 0.00 | 0.19 | 0.00 | 91 | 1010.0 |
| 20260503051030 | 44 | 322 | 0.0 | 3.0 | 0.00 | 0.19 | 0.00 | 91 | 1010.1 |
| 20260503050529 | 44 | 322 | 0.0 | 4.0 | 0.00 | 0.19 | 0.00 | 91 | 1010.1 |
| 20260503050028 | 45 | 322 | 1.0 | 3.0 | 0.00 | 0.19 | 0.00 | 91 | 1010.1 |
| 20260503045528 | 45 | 322 | 0.0 | 2.0 | 0.00 | 0.19 | 0.00 | 91 | 1010.2 |
| 20260503045027 | 45 | 322 | 0.0 | 2.0 | 0.00 | 0.19 | 0.00 | 91 | 1010.4 |
| 20260503044526 | 45 | 322 | 0.0 | 2.0 | 0.00 | 0.19 | 0.00 | 91 | 1010.5 |
| 20260503044025 | 45 | 359 | 0.0 | 1.0 | 0.00 | 0.19 | 0.00 | 91 | 1010.5 |
| 20260503043524 | 45 | 322 | 0.0 | 4.0 | 0.00 | 0.19 | 0.00 | 91 | 1010.6 |
| 20260503043025 | 46 | 322 | 0.0 | 4.0 | 0.00 | 0.19 | 0.00 | 91 | 1010.7 |
| 20260503042524 | 46 | 322 | 0.0 | 3.0 | 0.00 | 0.19 | 0.00 | 91 | 1010.7 |
| 20260503042023 | 46 | 322 | 0.0 | 4.0 | 0.00 | 0.19 | 0.00 | 91 | 1010.7 |
| 20260503041522 | 46 | 322 | 1.0 | 4.0 | 0.00 | 0.19 | 0.00 | 91 | 1010.8 |
| 20260503041024 | 46 | 17 | 0.0 | 2.0 | 0.00 | 0.19 | 0.00 | 91 | 1010.8 |
| 20260503040520 | 46 | 17 | 0.0 | 1.0 | 0.00 | 0.19 | 0.00 | 91 | 1010.8 |
| 20260503040031 | 46 | 17 | 0.0 | 0.0 | 0.00 | 0.19 | 0.00 | 91 | 1010.8 |
| 20260503035520 | 46 | 16 | 0.0 | 0.0 | 0.00 | 0.19 | 0.19 | 91 | 1010.9 |
| 20260503035020 | 46 | 17 | 0.0 | 0.0 | 0.00 | 0.19 | 0.19 | 91 | 1010.9 |
| 20260503034520 | 46 | 17 | 0.0 | 2.0 | 0.00 | 0.19 | 0.19 | 91 | 1010.8 |
| 20260503034020 | 46 | 17 | 0.0 | 2.0 | 0.00 | 0.19 | 0.19 | 91 | 1011.0 |
| 20260503033519 | 46 | 17 | 0.0 | 2.0 | 0.00 | 0.19 | 0.19 | 91 | 1010.9 |
| 20260503033121 | 46 | 18 | 0.0 | 2.0 | 0.00 | 0.19 | 0.19 | 91 | 1010.9 |
| 20260503032519 | 46 | 18 | 0.0 | 2.0 | 0.00 | 0.19 | 0.19 | 91 | 1010.9 |
| 20260503032019 | 46 | 17 | 0.0 | 0.0 | 0.00 | 0.19 | 0.19 | 91 | 1010.8 |
| 20260503031519 | 46 | 17 | 0.0 | 0.0 | 0.00 | 0.19 | 0.19 | 91 | 1010.8 |
| 20260503031019 | 46 | 17 | 0.0 | 0.0 | 0.00 | 0.19 | 0.19 | 91 | 1010.9 |
| 20260503030518 | 46 | 17 | 0.0 | 1.0 | 0.00 | 0.19 | 0.19 | 91 | 1010.9 |
| 20260503030022 | 46 | 17 | 0.0 | 1.0 | 0.00 | 0.19 | 0.19 | 91 | 1010.9 |
| 20260503025518 | 47 | 17 | 0.0 | 1.0 | 0.00 | 0.19 | 0.19 | 91 | 1011.0 |
| 20260503025018 | 47 | 17 | 0.0 | 2.0 | 0.00 | 0.19 | 0.19 | 91 | 1011.0 |
| 20260503024518 | 47 | 17 | 0.0 | 2.0 | 0.00 | 0.19 | 0.19 | 91 | 1011.1 |
| 20260503024018 | 47 | 17 | 0.0 | 1.0 | 0.00 | 0.19 | 0.19 | 91 | 1011.1 |
| 20260503023518 | 47 | 18 | 0.0 | 2.0 | 0.00 | 0.19 | 0.19 | 91 | 1011.2 |
| 20260503023018 | 47 | 17 | 0.0 | 2.0 | 0.00 | 0.19 | 0.19 | 91 | 1011.2 |
| 20260503022517 | 47 | 17 | 0.0 | 1.0 | 0.00 | 0.19 | 0.19 | 91 | 1011.2 |
| 20260503022017 | 47 | 17 | 0.0 | 1.0 | 0.00 | 0.19 | 0.19 | 91 | 1011.2 |
| 20260503021517 | 47 | 17 | 0.0 | 1.0 | 0.00 | 0.19 | 0.19 | 91 | 1011.2 |
| 20260503021017 | 47 | 18 | 0.0 | 2.0 | 0.00 | 0.19 | 0.19 | 91 | 1011.2 |
| 20260503020517 | 47 | 17 | 0.0 | 2.0 | 0.00 | 0.19 | 0.19 | 91 | 1011.3 |
| 20260503020017 | 47 | 17 | 0.0 | 2.0 | 0.00 | 0.19 | 0.19 | 91 | 1011.3 |
| 20260503015517 | 47 | 18 | 0.0 | 1.0 | 0.00 | 0.19 | 0.19 | 91 | 1011.1 |
| 20260503015020 | 47 | 17 | 0.0 | 2.0 | 0.00 | 0.19 | 0.19 | 91 | 1011.1 |
| 20260503014516 | 47 | 18 | 0.0 | 3.0 | 0.00 | 0.19 | 0.19 | 90 | 1010.9 |
| 20260503014016 | 47 | 17 | 1.0 | 3.0 | 0.00 | 0.19 | 0.19 | 91 | 1010.8 |
| 20260503013516 | 47 | 325 | 0.0 | 2.0 | 0.00 | 0.19 | 0.19 | 91 | 1010.9 |
| 20260503013018 | 47 | 325 | 0.0 | 2.0 | 0.00 | 0.19 | 0.19 | 90 | 1010.9 |
| 20260503012516 | 48 | 316 | 0.0 | 2.0 | 0.00 | 0.19 | 0.19 | 90 | 1010.8 |
| 20260503012016 | 48 | 316 | 0.0 | 2.0 | 0.00 | 0.19 | 0.19 | 90 | 1010.8 |
| 20260503011521 | 48 | 317 | 0.0 | 1.0 | 0.00 | 0.19 | 0.19 | 90 | 1011.0 |
| 20260503011016 | 48 | 317 | 0.0 | 1.0 | 0.00 | 0.19 | 0.19 | 90 | 1011.1 |
| 20260503010517 | 48 | 317 | 0.0 | 0.0 | 0.00 | 0.19 | 0.19 | 90 | 1011.2 |